This demonstration page uses our WeatherBlox Daily Observations layout. Learn more.

39.92423, -83.80882

Hourly Observations for June 28, 2017

Temp ( °F °C ) Dew Point ( °F °C ) Humidity (%) Winds ( mph kmh ) Pressure ( in mb ) Visibility ( mi km ) Precip ( " mm )
12:56 am 00:56 Clear 53 11.7 50 10 89 89 Calm 30.15 1021 10 16.0934 0 0
1:56 am 01:56 Clear 52 11.1 49 9.4 89 89 Calm 30.14 1021 10 16.0934 0 0
2:56 am 02:56 Clear 51 10.6 49 9.4 92 92 Calm 30.14 1021 10 16.0934 0 0
3:56 am 03:56 Clear 52 11.1 48 8.9 86 86 S 3 6 30.14 1021 10 16.0934 0 0
4:56 am 04:56 Clear 54 12.2 48 8.9 80 80 S 3 6 30.14 1021 10 16.0934 0 0
5:56 am 05:56 Clear 48 8.9 46 7.8 93 93 ESE 3 6 30.13 1020 10 16.0934 0 0
6:56 am 06:56 Sunny 51 10.6 48 8.9 89 89 Calm 30.16 1021 8 12.87472 0 0
7:56 am 07:56 Sunny 60 15.6 53 11.7 78 78 S 5 7 30.16 1022 10 16.0934 0 0
8:56 am 08:56 Sunny 65 18.3 53 11.7 66 66 S 3 6 30.17 1022 10 16.0934 0 0
9:56 am 09:56 Sunny 69 20.6 54 12.2 59 59 S 6 9 30.17 1022 10 16.0934 0 0
10:56 am 10:56 Sunny 71 21.7 53 11.7 53 53 S 9 15 30.17 1022 10 16.0934 0 0
11:56 am 11:56 Sunny 72 22.2 52 11.1 50 50 SW 8 13 30.18 1022 10 16.0934 0 0
12:56 pm 12:56 Sunny 75 23.9 52 11.1 45 45 WSW 9 15 30.16 1021 10 16.0934 0 0
1:56 pm 13:56 Sunny 74 23.3 52 11.1 46 46 SW 10 17 30.15 1021 10 16.0934 0 0
2:56 pm 14:56 Sunny 75 23.9 52 11.1 45 45 S 6 9 30.12 1020 10 16.0934 0 0
3:56 pm 15:56 Sunny 77 25 54 12.2 45 45 S 9 15 30.09 1019 10 16.0934 0 0
4:56 pm 16:56 Sunny 77 25 54 12.2 45 45 S 10 17 30.07 1018 10 16.0934 0 0
5:56 pm 17:56 Sunny 77 25 55 12.8 47 47 SSW 8 13 30.06 1018 10 16.0934 0 0
6:56 pm 18:56 Sunny 77 25 54 12.2 45 45 S 9 15 30.03 1017 10 16.0934 0 0
7:56 pm 19:56 Sunny 74 23.3 54 12.2 50 50 S 10 17 30.02 1017 10 16.0934 0 0
8:56 pm 20:56 Sunny 71 21.7 54 12.2 55 55 S 7 11 30.01 1016 10 16.0934 0 0
9:56 pm 21:56 Clear 68 20 54 12.2 61 61 SSE 7 11 30.01 1016 10 16.0934 0 0
10:56 pm 22:56 Clear 66 18.9 55 12.8 68 68 S 5 7 30.03 1017 10 16.0934 0 0

Powered by AerisWeather